Regional Weather Roundup
Issued by NWS Wakefield, VA

Home | Current Version | Previous Version | Text Only | Print | Product List | Glossary On
Versions: 1 2 3 4 5 6 7 8 9 10 11 12 13 14 15 16 17 18 19 20 21 22 23 24 25 26 27
000
ASUS41 KAKQ 040015
RWRAKQ

REGIONAL WEATHER ROUNDUP
NATIONAL WEATHER SERVICE WAKEFIELD VA
800 PM EDT TUE MAY 03 2016

Note: "fair" indicates few or no clouds below 12,000 feet with no
significant weather and/or obstructions to visibility. * = Denotes
station may not report precipitation (e.g., rain,snow,etc.),
thunder or fog.

VAZ042-051-052>054-056-040100-
NORTHERN VIRGINIA

CITY           SKY/WX    TMP DP  RH WIND       PRES   REMARKS
WASH NATIONAL  MOCLDY    62  57  83 E9        29.77R
DULLES         LGT RAIN  63  58  83 CALM      29.77R
FORT BELVOIR   CLOUDY    62  58  88 VRB1      29.76R
QUANTICO       CLOUDY    63  59  87 E8        29.76R
FREDERICKSBRG* NOT AVBL
STAFFORD*      CLOUDY    62  59  91 E7        29.79R FOG
WARRENTON      CLOUDY    65  58  77 N3        29.76R
CULPEPER*      CLOUDY    64  62  92 NE3       29.77R
MANASSAS*      CLOUDY    64  63  94 SE5       29.76R
LEESBURG*      LGT RAIN  64  63  94 SE3       29.78R
WINCHESTER     MOCLDY    63  59  88 CALM      29.76S
FRONT ROYAL*   MOCLDY    61  59  94 N5        29.74R
LURAY*         FAIR      61  61 100 N3        29.75S
$$

VAZ048-049-060>072-079>083-040100-
CENTRAL AND SOUTH CENTRAL VIRGINIA

CITY           SKY/WX    TMP DP  RH WIND       PRES   REMARKS
RICHMOND       MOCLDY    61  58  90 NE8       29.75R
CHESTERFIELD*  FAIR      63  48  59 NE5       29.76R
PETERSBURG*    LGT RAIN  65  60  84 N10       29.75R
HANOVER        CLOUDY    60  58  92 CALM      29.77R
TAPPAHANNOCK*  RAIN      61  61 100 NE6       29.76F
QUINTON*       MOCLDY    60  60  97 N5        29.74F
CHARLOTTSVILLE MOCLDY    64  57  78 E6        29.73S
GORDONSVILLE*  MOCLDY    61  60  96 E3        29.74R
ORANGE*        CLOUDY    63  61  94 SW7       29.78R
LOUISA*        FAIR      64  63  94 CALM      29.74R
BUMPASS*       FAIR      59  58  97 CALM      29.74S
FARMVILLE*     FAIR      65  65 100 SW3       29.71S
CREWE*         CLOUDY    64  64 100 CALM      29.72R
FORT PICKETT*  NOT AVBL
CHASE CITY*    MOCLDY    65  63  94 CALM      29.74S
CLARKSVILLE*   MOCLDY    64  61  88 CALM      29.73S
SOUTH HILL*    MOCLDY    66  66  98 CALM      29.79S
LAWRENCEVILLE* FAIR      65  64  94 CALM      29.73F
EMPORIA*       LGT RAIN  64  63  94 NW8       29.74S
$$

VAZ088>098-040100-
SOUTHEAST VIRGINIA

CITY           SKY/WX    TMP DP  RH WIND       PRES   REMARKS
NORFOLK        MOCLDY    72  64  76 S7        29.72S
VIRGINIA BEACH FAIR      74  65  73 S7        29.72S
NORFOLK NAVAL  CLOUDY    72  65  78 S5        29.73S
WEST POINT*    MOCLDY    62  60  94 NE6       29.76F
SALUDA*        CLOUDY    60  59  98 N8        29.75R
NEWPORT NEWS   MOCLDY    72  65  78 SW5       29.71F
LANGLEY AFB    FAIR      69  65  86 SE7       29.71F
FORT EUSTIS    LGT RAIN  68  63  83 N14G26    29.73R
WILLIAMSBURG*  MOCLDY    64  61  88 N6G16     29.76R
HR EXEC AP*    FAIR      70  64  83 CALM      29.74S
FRANKLIN*      FAIR      71  65  83 S5        29.74R
US460-WAKEFLD  LGT RAIN  65  59  81 CALM      29.73R
$$

VAZ020-022-025-037-045-040100-
WEST CENTRAL AND SOUTHWEST VIRGINIA

CITY           SKY/WX    TMP DP  RH WIND       PRES   REMARKS
STAUNTON*      LGT RAIN  65  61  88 W5        29.78R
WAYNESBORO*    CLOUDY    64  57  79 NW13      29.76R
HOT SPRINGS VA MOCLDY    54  47  76 W12G21    29.83R
LYNCHBURG      FAIR      65  61  87 SW3       29.75S
DANVILLE       MOCLDY    63  62  97 CALM      29.74F
SOUTH BOSTON*  CLOUDY    66  65  94 CALM      29.74S
MARTINSVILLE   MOCLDY    61  60  97 N3        29.79R
ROANOKE        FAIR      69  48  47 NW10      29.79R
BLACKSBURG     MOCLDY    62  49  62 W7        29.84R
DUBLIN*        FAIR      63  50  63 NW9       29.83S
MARION*        FAIR      60  47  61 W10G18    29.86R
HILLSVILLE*    FAIR      62  50  66 NW8       29.82R
RICHLANDS*     MOCLDY    56  48  75 NW7       29.87R
WISE*          CLOUDY    55  39  54 CALM      29.89S
ABINGDON*      MOCLDY    62  47  58 N8        29.85R
$$

MDZ021>025-VAZ099-100-040100-
SOUTHERN MARYLAND AND THE DELMARVA PENINSULA

CITY           SKY/WX    TMP DP  RH WIND       PRES   REMARKS
PATUXENT RIVER LGT RAIN  60  58  92 E17       29.73F FOG
BAY BRIDGE APT NOT AVBL
LEONARDTOWN    CLOUDY    59  55  88 NE3       29.76F
DOVER          CLOUDY    56  56 100 NE10      29.79S
GEORGETOWN     CLOUDY    56  55  97 NE9       29.80F FOG
EASTON         LGT RAIN N/A N/A N/A SE7       29.81F
CAMBRIDGE        N/A     59  57  94 E3        29.79F
SALISBURY      RAIN      57  56  96 E7        29.80R FOG
OCEAN CITY     CLOUDY    53  52  96 NE13G20   29.80S
WALLOPS ISLAND CLOUDY    57  55  93 NE16      29.78F
ACCOMACK*      CLOUDY    61  54  77 E15G22    29.74S
$$

NCZ012>017-030>032-040100-
NORTH CENTRAL AND EASTERN NORTH CAROLINA

CITY           SKY/WX    TMP DP  RH WIND       PRES   REMARKS
ROANOKE RAPIDS MOCLDY    72  64  78 S5        29.72S
RALEIGH        CLOUDY    66  64  93 CALM      29.73S
ELIZABETH CITY CLEAR     70  64  81 S8        29.74F
AHOSKIE*       CLOUDY    70  66  85 CALM      29.74R
EDENTON*       CLEAR     72  67  86 S7        29.75S
CURRITUCK*     NOT AVBL
KILL DEVIL HLS CLEAR     70  64  81 SW6       29.74S
MANTEO         NOT AVBL
CAPE HATTERAS  CLEAR     69  66  90 SW10      29.77F
TARBORO*       LGT RAIN  73  67  80 S3        29.72F
GOLDSBORO      MOCLDY    73  73 100 N12       29.71S
WASHINGTON     CLOUDY    72  67  83 S7        29.74S
GREENVILLE     CLOUDY    73  68  83 S6        29.76S
NEW BERN       CLOUDY    69  65  86 S6        29.77S
WILMINGTON     CLOUDY    70  67  90 S13       29.76F
$$

VAZ048-040100-
ELSEWHERE

CITY           SKY/WX    TMP DP  RH WIND       PRES   REMARKS
HARRISBURG PA  MOCLDY    59  53  80 SE8       29.78R
BALTIMORE      MOCLDY    59  54  83 E13       29.78R
ANNAPOLIS      CLOUDY    60  56  86 E7        29.78R
ANDREWS AFB    MOCLDY    59  57  91 E9        29.76R
PHILADELPHIA   CLOUDY    56  50  80 E10       29.82S
HENDERSON NC   CLOUDY    70  62  74 N3        29.73S
GREENSBORO     CLOUDY    68  59  73 CALM      29.75R
ROCKY MOUNT    CLOUDY    65  62  90 S6        29.74R
$$

VAZ100-040100-
MARINE

STATION/POSITION TIME  TEMP    WIND        PRES    WAVE   SWELL
                       AIR SEA DIR/SP/G            HT/PER HT/PER
                 (UTC) (F)     (DEG/KT/KT) (MB)    (FT/S) (FT/S)
BRANDYWINE LGT   2300   54                 1008.7F
CAPE MAY NJ      2300   54 59              1008.7R
LEWES DE         2300   54 57              1008.8R
15NM E FENWICK I 2350   51 52              1008.9R   3/ 4
OCEAN-CITY-INLET 2300   54 55              1008.3R
WACHAPREAGUE VA  2300   64 65              1006.9R
THOMAS POINT MD  0000   60 59   80/ 12/ 14 1009.5F
GOOSES REEF MD   0000   60 60  100/ 12/ 14 1008.2F   1/ 3
COVE POINT MD    2300   60                 1009.2R
SOLOMONS ISLAND  2300   60 61                N/A
BISHOPS HEAD MD  2300   64 67              1007.7R
POTOMAC MD       2300   63 61   10/ 17/ 23 1006.6R
CAMBRIDGE MD     2300   61 61              1008.3R
LEWISETTA VA     2300   62 63              1008.0R
RAPPAHANNOCK LGT 2300                      1007.2F
STINGRAY PT      0000   61 63  350/ 10/ 16 1007.7R   1
YORK RVR RNG VA  2300   65                 1005.8R
YORKTOWN VA      2300   67 64              1006.0R
JAMESTOWN VA     0000   65 67   20/ 10/ 16   N/A     0
DOMINION TERM VA 2300   70                 1006.2F
KIPTOPEKE VA     2300      64                N/A
CHES BAY BRIDGE  2300   68 62              1006.1F
CAPE HENRY VA    2300   66                   N/A
CHESAPEAKE LGHT  2300   63     170/ 15/ 15 1007.5F
WILLOUBY STN VA  2300   68                 1007.3F
CAPE HENRY BUOY  2312      60                N/A     3/ 7
CAPE CHARLES BUO 2326      60                N/A     3/ 7   2/ 7
OFFSHORE WE BUOY 2321      57                N/A     4/ 7   3/ 7
64NM E OF VA BCH 2350   58 54  190/  6/  8 1007.3R   4/ 7   3/ 7
44100 DUCK FRF   2324      62                N/A     3/ 6
44056 DUCK FRF   2311      59                N/A     2/ 9
OREGON INLET NC  2300   69 72              1007.6F
HATTERAS NC      2300   71 70              1007.9F
DIAMOND SHLS NC  2350   73 72  200/ 19/ 21 1007.9F   5/ 4   2/ 7
CAPE LOOKOUT NC  0000   70     200/ 10/ 13 1007.5F
$$




USA.gov is the U.S. government's official web portal to all federal, state and local government web resources and services.